This demonstration page uses our WeatherBlox Daily Observations layout. Learn more.

Left ArrowRight Arrow

Hourly Observations for January 5, 2016

Temp ( °F °C ) Dew Point ( °F °C ) Humidity (%) Winds ( mph kmh ) Pressure ( in mb ) Visibility ( mi km ) Precip ( " mm )
12:59 am 00:59 Mostly Cloudy 30 -1.1 9 -12.8 41 41 N 20 31 30.37 1028 10 16 0.00 0.00
1:59 am 01:59 Partly Cloudy 29 -1.7 9 -12.8 43 43 N 18 30 30.39 1029 10 16 0.00 0.00
2:59 am 02:59 Partly Cloudy 27 -2.8 7 -13.9 43 43 NNW 26 43 30.42 1030 10 16 0.00 0.00
3:59 am 03:59 Partly Cloudy 26 -3.3 10 -12.2 51 51 N 16 26 30.44 1031 10 16 0.00 0.00
4:59 am 04:59 Mostly Cloudy 24 -4.4 9 -12.8 52 52 NNW 18 30 30.46 1032 10 16 0.00 0.00
5:59 am 05:59 Mostly Cloudy 23 -5 11 -11.7 60 60 NNW 22 35 30.50 1033 10 16 0.00 0.00
6:19 am 06:19 Windy with Snow Likely 23 -5 11 -11.7 60 60 NNW 23 37 30.50 1033 6 10 0.00 0.03
6:59 am 06:59 Cloudy with Light Snow 23 -5 12 -11.1 63 63 NNW 17 28 30.53 1034 7 11 0.00 0.03
7:59 am 07:59 Cloudy with Light Snow 22 -5.6 12 -11.1 66 66 NNW 16 26 30.55 1035 7 11 0.00 0.03
8:30 am 08:30 Windy with Snow Likely 23 -5 15 -9.4 72 72 NNW 20 31 30.56 1035 3 4 0.00 0.03
8:59 am 08:59 Windy with Snow Likely 23 -5 15 -9.4 72 72 NNW 20 31 30.58 1036 3 4 0.00 0.03
9:59 am 09:59 Cloudy with Light Snow 23 -5 17 -8.3 78 78 NNW 17 28 30.61 1037 3 4 0.00 0.03
10:09 am 10:09 Cloudy with Light Snow 24 -4.4 17 -8.3 75 75 NNW 16 26 30.62 1037 3 5 0.00 0.03
10:59 am 10:59 Mostly Cloudy 28 -2.2 18 -7.8 66 66 N 16 26 30.63 1037 10 16 0.00 0.03
11:59 am 11:59 Mostly Cloudy 29 -1.7 18 -7.8 63 63 N 14 22 30.61 1037 10 16 0.00 0.00
12:59 pm 12:59 Cloudy 29 -1.7 18 -7.8 63 63 N 17 28 30.60 1036 10 16 0.00 0.00
1:59 pm 13:59 Mostly Cloudy 30 -1.1 18 -7.8 61 61 N 15 24 30.60 1036 10 16 0.00 0.00
2:59 pm 14:59 Mostly Cloudy 32 0 17 -8.3 54 54 N 14 22 30.61 1037 10 16 0.00 0.00
3:59 pm 15:59 Mostly Cloudy 30 -1.1 17 -8.3 58 58 N 13 20 30.63 1037 10 16 0.00 0.00
4:59 pm 16:59 Mostly Cloudy 30 -1.1 17 -8.3 58 58 NNE 13 20 30.64 1038 N/A 0.00 0.00
5:59 pm 17:59 Partly Cloudy 29 -1.7 17 -8.3 61 61 NNE 6 9 30.65 1038 10 16 0.00 0.00
6:59 pm 18:59 Mostly Clear 29 -1.7 17 -8.3 61 61 NE 8 13 30.65 1038 10 16 0.00 0.00
7:59 pm 19:59 Mostly Cloudy 32 0 18 -7.8 56 56 N 14 22 30.64 1038 10 16 0.00 0.00
8:59 pm 20:59 Mostly Cloudy 33 0.6 20 -6.7 58 58 N 12 19 30.64 1038 10 16 0.00 0.00
9:59 pm 21:59 Mostly Cloudy 34 1.1 23 -5 64 64 NNE 7 11 30.64 1038 10 16 0.00 0.00
10:59 pm 22:59 Mostly Cloudy 32 0 22 -5.6 66 66 NNW 12 19 30.63 1037 10 16 0.00 0.00
11:59 pm 23:59 Mostly Cloudy 31 -0.6 20 -6.7 64 64 N 12 19 30.61 1037 10 16 0.00 0.00

Powered by AerisWeather